Wind_Speed
70 67 67 69 71 75 75 78 75 78 77 82 79 77 60 63 56 53 46 56 53 55 58 55 51 51 46 45 45 43 48 49 50 48 49 47 49 54 48 46 48 52 55 60
71 69 67 72 75 75 75 76 75 75 79 77 78 66 56 57 57 47 54 57 54 57 56 54 51 47 46 45 45 46 48 47 49 49 48 45 43 44 46 49 56 60 67 72
75 72 73 75 74 74 76 76 75 78 78 77 67 60 56 55 52 50 57 57 54 55 53 53 49 47 46 46 44 46 48 47 40 39 36 37 40 45 53 58 63 68 69 69
76 77 77 76 75 75 76 74 78 80 76 68 55 57 54 52 48 50 57 55 54 49 49 48 45 45 45 44 44 41 36 34 32 34 38 43 47 51 58 59 62 66 64 64
79 79 79 78 76 76 75 78 80 72 70 61 54 55 52 47 48 52 50 46 44 44 40 42 42 42 38 38 37 35 34 35 38 38 43 48 54 56 61 67 64 65 66 65
81 80 81 79 78 77 76 79 72 67 61 56 55 52 48 46 48 51 46 42 37 32 37 37 36 39 38 36 34 33 33 32 36 41 47 52 55 58 63 60 60 63 63 63
83 83 83 81 76 76 79 71 62 58 51 50 51 51 49 50 50 47 49 39 43 39 36 38 37 36 37 35 34 34 34 36 41 46 51 53 57 61 63 61 61 64 65 64
87 88 83 77 75 73 63 61 61 49 51 52 52 53 51 51 51 49 49 46 42 41 41 38 38 37 35 35 37 40 38 39 44 50 51 54 60 62 62 61 61 64 65 65
87 82 79 70 65 61 59 57 51 51 53 52 54 55 52 52 51 52 53 55 51 51 44 44 44 39 37 36 38 41 45 46 48 49 53 58 61 60 60 61 62 62 63 66
78 70 63 66 58 57 55 53 52 51 54 54 59 58 55 55 55 56 58 58 56 55 52 49 45 47 44 41 41 43 46 50 51 53 56 59 61 61 62 61 62 62 63 66
61 67 56 54 55 53 54 53 52 54 55 57 58 57 59 58 57 57 63 63 60 60 60 53 53 50 47 42 44 45 46 50 53 56 58 59 61 62 63 63 64 64 64 65
58 55 54 55 50 49 53 54 55 58 61 61 55 58 58 59 60 60 65 67 65 62 60 63 60 56 52 46 46 48 49 53 55 57 60 62 63 64 64 66 66 66 67 67
55 53 56 54 51 52 52 57 59 60 60 59 55 59 62 60 59 62 65 66 65 66 65 65 61 58 50 51 51 53 54 57 58 59 63 66 66 66 67 67 66 67 70 69
58 56 55 54 51 55 59 59 61 60 57 56 60 60 66 61 61 63 66 68 69 67 65 65 65 60 58 57 55 55 56 59 60 63 66 68 68 69 68 67 68 69 70 70
55 55 54 53 54 59 61 62 62 60 59 58 62 61 65 66 65 66 67 68 68 67 67 67 66 65 63 62 58 60 61 63 64 68 70 70 70 71 70 70 69 69 72 71
55 54 57 57 57 56 59 61 61 61 60 60 61 63 64 68 69 69 69 68 69 70 69 69 68 69 70 68 67 66 66 66 67 70 72 73 73 73 73 73 71 70 73 72
56 57 57 57 60 59 59 66 64 64 65 66 64 67 68 69 71 71 70 68 72 72 71 72 73 72 72 69 69 69 68 69 71 74 76 76 75 76 76 74 73 71 73 75
58 60 61 62 64 63 68 69 68 70 72 71 70 70 70 70 72 73 74 74 74 73 74 73 75 76 74 73 72 72 71 73 75 78 77 77 78 78 78 73 72 72 75 77
64 66 65 66 69 69 70 73 75 78 78 73 72 72 71 71 72 73 77 78 77 76 76 75 76 77 77 77 76 76 77 76 78 79 79 79 79 80 79 73 72 73 76 78
70 71 73 72 73 73 74 77 78 75 76 76 73 74 74 73 72 73 77 78 79 79 78 77 78 80 81 80 82 82 81 81 81 82 80 81 81 81 77 74 73 74 77 80
76 76 77 79 78 77 75 78 82 79 75 76 76 76 77 77 77 76 78 80 83 81 83 81 82 83 83 85 84 84 84 84 85 82 82 83 82 81 77 73 73 75 77 81
78 82 83 79 78 77 77 76 79 81 80 79 81 82 82 82 82 82 81 81 83 84 85 86 85 87 87 86 86 87 87 87 85 83 81 83 82 80 77 74 73 75 78 82
86 85 84 82 78 77 78 80 80 82 85 84 84 84 86 86 86 85 85 85 86 86 88 90 88 87 87 87 89 88 88 85 84 83 83 84 82 80 76 73 73 75 79 82
86 86 84 83 82 85 87 86 85 84 85 87 88 88 87 88 88 84 84 85 86 86 86 86 88 89 89 87 86 86 86 84 85 83 83 83 81 78 75 73 73 76 79 80
86 85 85 86 85 90 89 91 92 92 92 94 95 93 93 90 89 85 85 85 84 84 83 84 85 83 84 85 84 84 83 83 83 82 83 81 78 76 74 73 74 76 78 76
89 92 92 90 91 95 95 98 95 94 96 96 94 92 90 90 90 87 83 82 82 81 82 83 83 81 83 83 83 82 83 83 82 82 80 78 76 75 73 74 75 76 75 70
Wind_Direction
284 288 294 296 297 301 304 309 313 313 314 317 316 315 315 322 321 319 318 325 319 312 306 308 305 299 301 305 308 307 304 303 302 303 303 297 290 289 288 288 291 293 297 302
284 287 293 296 300 301 305 309 311 313 313 315 315 311 316 322 319 317 319 321 312 309 310 309 305 307 308 309 307 298 295 297 296 294 293 291 290 289 294 301 307 308 306 303
285 288 290 296 299 301 305 309 310 313 312 313 313 312 318 317 317 317 325 320 312 314 312 309 309 308 307 306 304 292 290 290 289 291 291 296 299 307 308 308 308 307 305 304
283 284 290 293 297 302 306 308 310 312 311 312 310 314 318 317 318 327 330 320 319 319 317 314 313 308 309 307 305 302 300 298 303 309 311 310 308 308 307 308 308 306 307 307
281 286 289 292 298 302 304 308 308 308 308 307 311 313 316 316 325 329 336 324 326 321 317 319 315 316 318 314 309 305 304 309 311 306 304 307 309 311 310 311 312 313 315 314
282 286 289 294 298 302 303 306 305 303 305 310 310 313 315 321 324 326 332 343 335 323 325 329 327 326 324 320 312 310 311 307 307 305 306 307 309 310 313 315 314 316 317 316
287 287 292 295 299 300 301 302 300 300 303 309 311 312 316 323 322 321 337 348 349 342 333 331 329 332 331 322 318 317 315 314 312 310 308 307 309 313 315 316 318 320 321 320
286 290 293 294 296 300 297 295 295 300 303 309 308 309 313 317 318 323 340 342 348 352 346 343 336 329 329 331 326 321 316 313 310 311 309 307 310 312 315 316 320 322 322 322
283 287 292 293 295 295 292 290 297 298 303 306 306 305 310 314 315 328 339 342 341 342 344 347 347 344 337 330 326 323 319 313 312 309 308 308 308 313 316 318 321 322 321 322
283 288 287 291 290 290 287 292 299 301 305 306 305 304 309 311 319 330 333 339 337 339 342 342 343 345 343 339 333 327 324 320 318 315 312 310 313 314 315 318 320 323 321 321
280 285 284 284 285 286 290 296 300 301 307 306 302 306 310 318 318 326 330 333 334 336 338 338 340 339 339 337 335 330 326 325 322 318 315 314 316 317 317 318 320 320 321 322
278 277 279 282 282 286 293 300 301 304 305 301 301 303 310 314 319 322 327 329 330 330 334 333 334 335 332 330 329 329 327 327 322 320 319 319 320 319 317 319 319 320 321 322
273 275 277 281 281 292 297 299 300 302 298 297 299 301 308 311 316 318 323 323 325 327 329 331 329 330 326 325 326 326 326 325 323 320 320 320 320 319 318 319 319 320 321 321
273 273 276 278 283 294 294 294 297 294 293 294 295 299 303 309 311 315 318 319 321 324 323 324 325 324 322 322 324 325 322 322 322 321 321 322 320 320 320 321 320 321 321 321
268 270 273 277 286 289 287 286 289 289 290 292 295 297 303 306 310 312 315 314 318 318 317 320 321 320 319 320 319 320 319 319 319 320 322 323 322 322 322 322 320 321 322 321
267 268 268 269 271 275 277 278 283 284 287 290 293 295 301 304 308 310 310 311 313 311 313 314 315 317 316 319 319 318 318 317 317 320 322 322 321 322 322 321 320 321 323 321
262 262 264 267 270 271 271 276 279 283 287 290 292 293 297 301 304 305 306 306 310 309 310 311 313 313 314 315 315 317 316 316 317 320 321 320 320 320 321 320 320 321 322 323
258 261 263 263 266 270 272 276 280 283 285 289 290 294 296 299 301 303 305 304 306 305 306 307 310 312 312 312 313 313 314 314 317 319 320 319 320 320 320 319 320 320 321 323
256 259 261 263 265 268 272 275 277 280 284 288 291 292 294 296 297 299 302 303 303 304 304 304 307 308 308 309 311 311 313 313 315 317 319 318 320 320 318 318 320 319 320 321
255 258 266 264 263 266 269 272 275 279 284 287 290 291 293 292 293 295 297 299 301 300 301 300 303 306 307 308 308 309 312 312 315 317 317 318 319 319 318 318 318 318 319 321
257 257 258 261 263 265 269 273 278 280 281 283 286 289 289 291 293 292 295 297 298 298 299 299 300 303 305 306 306 308 310 311 313 314 316 316 318 318 318 317 317 317 318 319
258 261 261 261 266 266 268 272 274 279 280 281 284 284 286 287 289 290 292 293 295 295 296 297 299 302 304 305 306 307 309 311 313 315 314 316 317 318 317 316 316 317 318 319
258 259 262 266 266 267 269 271 273 275 278 282 283 283 284 285 287 288 291 292 294 295 295 297 298 299 301 304 305 307 309 312 312 312 313 314 316 317 316 315 315 316 317 319
255 257 258 263 264 267 270 271 273 274 275 278 279 282 284 285 287 289 290 291 292 294 296 297 298 300 301 303 305 307 308 310 310 312 312 313 315 316 315 314 316 316 318 320
256 259 261 263 263 266 269 271 275 277 278 279 282 283 285 286 289 291 293 294 295 297 297 299 301 302 303 303 305 306 307 308 309 311 311 313 315 314 314 314 315 315 319 319
259 261 263 264 265 269 271 274 276 276 278 280 281 282 284 286 290 293 295 297 297 299 300 302 303 301 302 302 303 305 305 307 307 308 310 312 313 313 313 314 314 317 318 319
Height
10866 10868 10869 10865 10860 10857 10853 10849 10848 10845 10836 10830 10822 10811 10801 10793 10785 10778 10775 10771 10764 10756 10748 10743 10737 10730 10727 10722 10715 10710 10706 10704 10702 10699 10696 10691 10687 10683 10679 10674 10670 10664 10659 10652
10856 10858 10859 10854 10852 10847 10843 10839 10837 10835 10830 10822 10812 10800 10795 10787 10779 10775 10769 10761 10754 10746 10738 10731 10724 10718 10715 10710 10707 10702 10699 10696 10693 10691 10685 10680 10676 10673 10669 10663 10656 10649 10643 10635
10844 10848 10847 10845 10842 10838 10833 10830 10826 10823 10820 10814 10803 10790 10786 10782 10776 10768 10762 10753 10744 10736 10728 10721 10715 10710 10706 10702 10698 10693 10690 10687 10683 10680 10675 10671 10668 10663 10657 10649 10643 10637 10628 10619
10834 10833 10835 10833 10832 10828 10822 10819 10816 10811 10808 10803 10797 10785 10778 10771 10767 10761 10751 10742 10734 10728 10721 10711 10706 10700 10696 10691 10687 10684 10680 10677 10674 10669 10665 10661 10656 10652 10646 10639 10632 10624 10614 10605
10819 10821 10822 10820 10822 10817 10810 10809 10805 10800 10796 10792 10788 10779 10772 10764 10760 10753 10746 10736 10727 10720 10713 10706 10698 10691 10688 10683 10678 10675 10672 10668 10664 10661 10656 10651 10646 10640 10632 10623 10613 10605 10597 10588
10807 10808 10809 10810 10808 10805 10801 10797 10794 10790 10786 10780 10776 10770 10764 10757 10752 10747 10741 10731 10722 10714 10706 10699 10692 10686 10681 10676 10672 10669 10665 10661 10658 10653 10647 10641 10635 10629 10621 10612 10603 10595 10585 10575
10794 10794 10795 10797 10796 10793 10789 10784 10783 10779 10776 10771 10766 10761 10755 10750 10744 10740 10733 10724 10717 10709 10700 10694 10689 10683 10677 10672 10667 10664 10659 10655 10650 10645 10638 10631 10624 10618 10610 10601 10591 10580 10570 10560
10779 10781 10781 10783 10782 10781 10776 10774 10772 10768 10765 10761 10757 10751 10746 10741 10737 10733 10725 10718 10711 10704 10696 10690 10685 10678 10672 10667 10663 10658 10652 10647 10642 10635 10628 10621 10614 10607 10598 10588 10579 10569 10558 10547
10767 10769 10769 10768 10767 10766 10764 10763 10761 10758 10753 10749 10746 10741 10738 10734 10729 10722 10715 10709 10703 10697 10691 10684 10678 10672 10666 10660 10655 10650 10645 10639 10632 10625 10619 10612 10605 10596 10586 10576 10566 10557 10546 10535
10754 10755 10754 10755 10754 10754 10754 10751 10750 10747 10742 10738 10733 10730 10726 10721 10715 10709 10705 10701 10694 10688 10683 10677 10670 10663 10657 10650 10645 10640 10635 10629 10622 10615 10609 10601 10593 10585 10575 10565 10555 10545 10535 10525
10741 10742 10741 10742 10742 10743 10742 10741 10738 10733 10731 10727 10719 10715 10709 10706 10703 10700 10695 10688 10682 10677 10671 10665 10660 10654 10649 10643 10638 10632 10626 10619 10612 10604 10597 10589 10581 10572 10563 10553 10544 10534 10524 10513
10728 10728 10730 10731 10731 10731 10731 10728 10724 10720 10716 10712 10708 10700 10698 10693 10691 10688 10682 10676 10670 10666 10660 10655 10649 10644 10638 10632 10627 10621 10614 10607 10600 10593 10585 10577 10569 10559 10550 10541 10531 10521 10510 10499
10717 10717 10719 10718 10718 10719 10718 10715 10711 10710 10705 10699 10698 10691 10687 10685 10682 10677 10671 10665 10661 10655 10649 10645 10641 10636 10629 10623 10617 10610 10604 10597 10589 10581 10573 10565 10556 10546 10536 10526 10516 10505 10495 10484
10706 10706 10706 10705 10706 10706 10705 10701 10699 10697 10694 10690 10682 10680 10675 10678 10673 10668 10662 10656 10651 10646 10641 10636 10630 10625 10619 10612 10606 10599 10592 10586 10578 10569 10560 10551 10541 10531 10521 10511 10501 10490 10480 10468
10693 10693 10693 10693 10692 10691 10691 10687 10686 10684 10682 10680 10673 10667 10665 10663 10663 10659 10653 10647 10642 10637 10631 10627 10621 10614 10608 10602 10596 10588 10581 10573 10565 10556 10546 10537 10526 10516 10506 10496 10486 10476 10465 10453
10678 10681 10680 10680 10678 10677 10676 10672 10673 10671 10669 10668 10664 10655 10655 10653 10652 10649 10644 10638 10632 10626 10621 10616 10610 10604 10596 10590 10583 10576 10568 10559 10550 10541 10532 10522 10511 10501 10492 10482 10471 10460 10449 10438
10665 10667 10667 10667 10667 10668 10663 10657 10662 10659 10657 10657 10652 10647 10644 10640 10638 10637 10633 10627 10622 10615 10609 10603 10597 10590 10583 10576 10569 10562 10553 10544 10535 10527 10517 10507 10496 10486 10476 10466 10455 10443 10432 10421
10649 10650 10651 10653 10652 10655 10645 10645 10647 10643 10644 10644 10638 10635 10634 10630 10626 10623 10620 10614 10608 10602 10596 10589 10584 10577 10569 10562 10554 10547 10539 10530 10521 10512 10502 10492 10481 10471 10460 10450 10439 10427 10416 10404
10633 10634 10636 10640 10638 10641 10636 10631 10632 10630 10626 10631 10626 10622 10620 10617 10612 10608 10605 10601 10594 10587 10581 10574 10569 10563 10557 10549 10541 10533 10525 10515 10505 10496 10487 10476 10466 10456 10446 10435 10424 10412 10400 10389
10617 10617 10620 10624 10625 10627 10624 10616 10617 10620 10612 10613 10612 10610 10609 10604 10600 10596 10592 10586 10580 10573 10566 10559 10554 10549 10542 10534 10526 10518 10511 10500 10491 10481 10472 10462 10452 10441 10430 10419 10409 10397 10385 10373
10601 10601 10603 10604 10607 10614 10611 10603 10602 10605 10606 10600 10596 10594 10592 10589 10586 10580 10577 10572 10566 10558 10550 10543 10538 10534 10528 10520 10511 10504 10495 10485 10476 10466 10457 10447 10437 10425 10414 10404 10393 10382 10370 10358
10583 10583 10586 10588 10594 10599 10593 10594 10590 10585 10583 10586 10584 10580 10578 10575 10571 10567 10562 10557 10551 10544 10537 10529 10523 10519 10513 10505 10495 10488 10480 10470 10460 10451 10440 10431 10421 10410 10399 10389 10379 10368 10355 10343
10567 10566 10568 10573 10576 10579 10578 10575 10576 10575 10569 10568 10566 10562 10561 10559 10555 10552 10548 10541 10536 10529 10521 10515 10508 10502 10496 10489 10478 10470 10461 10453 10443 10434 10425 10415 10405 10395 10384 10374 10364 10353 10341 10328
10548 10549 10554 10553 10556 10554 10554 10558 10558 10560 10558 10553 10547 10544 10542 10538 10537 10535 10531 10526 10519 10513 10506 10499 10491 10486 10479 10471 10461 10451 10444 10436 10428 10419 10409 10399 10390 10380 10370 10360 10349 10338 10326 10313
10530 10532 10534 10538 10536 10530 10533 10534 10535 10537 10536 10534 10532 10530 10525 10521 10517 10513 10510 10505 10500 10493 10488 10482 10476 10468 10459 10452 10443 10435 10427 10419 10411 10403 10394 10384 10374 10364 10354 10344 10334 10323 10312 10300
10513 10511 10513 10518 10514 10514 10516 10513 10515 10515 10513 10513 10512 10509 10507 10504 10500 10495 10490 10485 10480 10475 10468 10463 10458 10450 10442 10434 10427 10420 10411 10402 10394 10386 10378 10368 10359 10349 10339 10329 10319 10309 10297 10287